Charlottesville, VA

5:11 PM EDT on August 19, 2017 (GMT -0400)
Charlottesville-Albemarle

Weather History for KCHO - October, 2012

Change the Weather History Date:

Sunday, October 7, 2012

  Actual Average Record
Temperature  
Mean Temperature 47 °F 59 °F  
Max Temperature 53 °F 71 °F 98 °F (1941)
Min Temperature 41 °F 47 °F 32 °F (2001)
Degree Days  
Heating Degree Days 18 7  
Month to date heating degree days 27 42  
Since 1 July heating degree days 66 100  
Cooling Degree Days 0 1  
Month to date cooling degree days 17 7  
Year to date cooling degree days 1601 1028  
Moisture  
Dew Point 44 °F    
Average Humidity 84    
Maximum Humidity 96    
Minimum Humidity 71    
Precipitation  
Precipitation 0.07 in 0.12 in 2.46 in (2005)
Month to date precipitation 1.54 0.80  
Year to date precipitation 30.42 33.42  
Sea Level Pressure  
Sea Level Pressure 30.12 in    
Wind  
Wind Speed 2 mph (NW)    
Max Wind Speed 8 mph    
Max Gust Speed 13 mph    
Visibility 7 miles    
Events Fog , Rain    
T = Trace of Precipitation, MM = Missing Value Source: NWS Daily Summary

Daily Weather History Graph

Daily Weather History Graph

Search for Another Location

Airport or City:

Trip Planner

Search our weather history database for the weather conditions in past years. The results will help you decide how hot, cold, wet, or windy it might be!

Date:

Astronomy

Oct. 07, 2012 Rise Set
Actual Time 7:15 AM EDT 6:46 PM EDT
Civil Twilight 6:49 AM EDT 7:13 PM EDT
Nautical Twilight 6:18 AM EDT 7:43 PM EDT
Astronomical Twilight 5:47 AM EDT 8:14 PM EDT
Moon No Moon Rise 1:47 PM EDT (10/7)
Length of Visible Light 12h 24m
Length of Day
11h 31m
Waning Gibbous, 56% of the Moon is Illuminated
Oct 7
Waning Gibbous
Oct 8
Last Quarter
Oct 15
New
Oct 21
First Quarter
Oct 29
Full

Hourly Weather History & Observations

Time (EDT) Temp. Windchill Dew Point Humidity Pressure Visibility Wind Dir Wind Speed Gust Speed Precip Events Conditions
12:53 AM 50.0 °F - 45.0 °F 83% 30.01 in 10.0 mi Calm Calm - N/A   Clear
1:53 AM 52.0 °F - 43.0 °F 71% 30.02 in 10.0 mi Calm Calm - N/A   Mostly Cloudy
3:53 AM 53.1 °F - 45.0 °F 74% 30.04 in 10.0 mi Calm Calm - N/A   Overcast
4:53 AM 53.1 °F - 44.1 °F 71% 30.05 in 10.0 mi Calm Calm - N/A   Overcast
5:53 AM 52.0 °F - 46.9 °F 83% 30.07 in 10.0 mi Calm Calm - N/A   Overcast
6:53 AM 50.0 °F - 45.0 °F 83% 30.08 in 9.0 mi North 4.6 mph - 0.02 in Rain Light Rain
7:53 AM 50.0 °F - 44.1 °F 80% 30.11 in 9.0 mi Calm Calm - 0.03 in Rain Light Rain
8:53 AM 48.9 °F - 45.0 °F 86% 30.10 in 10.0 mi ENE 4.6 mph - 0.01 in Rain Light Rain
9:53 AM 50.0 °F - 46.0 °F 86% 30.14 in 10.0 mi NNW 3.5 mph - 0.00 in   Overcast
10:53 AM 50.0 °F - 45.0 °F 83% 30.13 in 10.0 mi North 3.5 mph - N/A   Overcast
11:53 AM 50.0 °F - 44.1 °F 80% 30.12 in 10.0 mi North 4.6 mph - 0.00 in   Overcast
1:53 PM 51.1 °F - 43.0 °F 74% 30.08 in 10.0 mi Calm Calm - N/A   Overcast
2:53 PM 51.1 °F - 43.0 °F 74% 30.05 in 10.0 mi North 3.5 mph - N/A   Overcast
3:53 PM 51.1 °F - 43.0 °F 74% 30.06 in 10.0 mi NW 3.5 mph - N/A   Overcast
4:53 PM 50.0 °F - 45.0 °F 83% 30.08 in 7.0 mi Calm Calm - 0.00 in Rain Light Rain
5:53 PM 50.0 °F - 45.0 °F 83% 30.10 in 10.0 mi Calm Calm - 0.00 in   Overcast
6:53 PM 50.0 °F - 46.0 °F 86% 30.10 in 10.0 mi Calm Calm - 0.01 in   Overcast
7:53 PM 46.9 °F - 45.0 °F 93% 30.12 in 8.0 mi Calm Calm - N/A   Partly Cloudy
8:53 PM 46.9 °F - 44.1 °F 90% 30.14 in 4.0 mi Calm Calm - N/A   Clear
9:53 PM 46.0 °F - 44.1 °F 93% 30.16 in 6.0 mi Calm Calm - N/A   Clear
10:30 PM 44.6 °F - 44.6 °F 100% 30.16 in 8.0 mi Calm Calm - N/A   Scattered Clouds
10:53 PM 44.1 °F 42.5 °F 43.0 °F 96% 30.17 in 8.0 mi West 3.5 mph - N/A   Scattered Clouds
11:00 PM 44.6 °F 43.1 °F 42.8 °F 93% 30.16 in 0.5 mi SW 3.5 mph - N/A Fog Fog
11:15 PM 42.8 °F 40.1 °F 42.8 °F 100% 30.17 in 1.0 mi WSW 4.6 mph - N/A   Mist
11:22 PM 42.8 °F - 42.8 °F 100% 30.17 in 0.8 mi Calm Calm - N/A   Mist
11:27 PM 44.6 °F - 42.8 °F 93% 30.18 in 1.2 mi Calm Calm - N/A   Scattered Clouds
11:31 PM 44.6 °F - 42.8 °F 93% 30.18 in 3.0 mi Calm Calm - N/A   Scattered Clouds
11:37 PM 42.8 °F - 41.0 °F 93% 30.18 in 1.8 mi Calm Calm - N/A   Scattered Clouds
11:46 PM 42.8 °F - 41.0 °F 93% 30.18 in 4.0 mi Calm Calm - N/A   Partly Cloudy
11:53 PM 42.1 °F - 41.0 °F 96% 30.19 in 4.0 mi Calm Calm - N/A   Partly Cloudy
11:58 PM 42.8 °F - 39.2 °F 87% 30.18 in 1.8 mi Calm Calm - N/A   Scattered Clouds